Wind_Speed
35 34 30 28 26 24 24 25 26 25 24 21 20 19 19 19 20 21 24 29 33 38 43 45 46 46 46 48 52 54 55 56 57 58 59 59 56 53 51 50 50 49 47 46
34 33 31 28 25 24 23 23 24 24 22 21 21 21 21 21 21 21 24 28 32 36 41 44 45 46 46 48 51 53 53 53 53 54 56 57 56 55 52 50 49 49 48 46
35 32 31 28 23 23 22 22 22 22 20 21 21 21 23 23 22 22 23 27 31 35 38 41 43 45 47 48 49 50 52 53 53 54 54 56 56 54 51 50 50 49 47 46
36 33 31 28 25 24 24 23 23 23 21 20 21 22 22 24 24 23 24 26 29 34 38 39 41 44 46 48 49 49 51 54 54 53 53 53 54 53 51 50 50 48 46 45
36 34 33 28 26 26 25 23 23 23 22 21 22 21 21 23 24 25 26 27 29 32 36 39 40 43 44 46 48 49 50 52 53 52 52 52 53 52 52 50 49 47 46 45
35 34 33 29 27 26 25 24 23 24 23 23 22 21 21 23 24 24 26 28 30 32 34 38 40 42 44 45 46 48 49 49 51 51 51 51 51 49 48 48 47 46 44 43
35 34 32 29 28 26 25 24 24 23 23 23 22 22 22 24 25 25 25 27 29 31 34 37 39 40 42 45 45 45 47 48 48 47 47 48 49 48 46 46 46 46 45 43
35 34 31 30 29 27 26 25 25 24 24 23 22 23 23 23 25 26 25 27 29 30 33 36 38 39 41 44 45 45 45 46 46 45 46 46 47 47 45 43 43 43 43 43
35 32 31 30 29 28 27 26 26 25 24 24 22 22 23 23 24 25 26 27 29 30 32 36 38 40 42 42 44 45 44 45 46 46 46 45 46 46 45 42 40 40 41 42
34 31 30 30 29 27 26 26 25 25 24 24 22 22 22 23 24 25 26 27 29 30 32 35 38 40 42 43 42 43 44 45 45 46 45 45 45 45 43 41 39 38 38 38
34 32 30 28 27 26 25 25 24 24 23 23 23 22 22 22 23 25 26 26 27 30 32 34 37 39 42 43 43 43 44 44 45 45 45 44 44 44 42 41 40 38 37 36
33 32 30 26 25 25 25 24 23 22 21 22 21 21 21 22 22 23 25 26 27 29 31 33 37 38 41 43 43 43 43 43 43 44 44 44 44 43 42 40 39 39 38 37
32 31 30 26 25 25 24 23 22 20 20 20 21 20 20 20 22 22 24 24 25 28 30 32 35 37 40 41 43 43 43 43 43 43 42 43 43 43 42 40 38 38 38 38
32 30 28 26 24 24 23 22 20 19 19 19 19 19 19 19 20 20 22 23 24 26 28 30 32 35 37 39 41 42 42 43 43 43 42 41 42 42 41 40 38 37 37 37
30 29 27 25 24 23 22 21 20 19 19 18 18 18 17 18 19 19 20 22 23 24 26 28 31 34 36 37 38 40 41 41 41 42 43 42 42 42 41 40 38 37 37 36
29 27 26 24 23 22 21 21 20 19 19 18 18 17 17 17 18 18 20 21 22 23 24 27 30 34 35 36 37 38 39 40 40 41 42 42 42 42 40 39 38 37 35 34
26 25 24 24 23 22 21 21 20 20 19 18 18 18 17 17 17 18 20 21 22 23 24 26 29 33 35 36 37 37 38 39 39 39 40 41 41 41 40 38 37 36 35 33
25 24 23 22 22 22 22 21 21 21 20 19 19 19 18 18 18 18 19 20 21 23 25 27 29 31 35 36 38 38 38 38 38 38 39 41 40 39 39 38 37 36 35 34
23 23 22 22 22 22 22 21 20 20 19 19 18 18 18 18 18 19 19 21 22 23 24 27 29 31 32 35 37 38 38 38 39 38 39 38 39 39 37 36 36 35 35 34
22 22 22 21 21 22 21 21 20 19 19 18 18 17 17 18 19 19 20 20 21 22 23 25 27 30 32 33 35 37 37 37 38 38 39 38 37 37 37 37 37 35 34 32
22 22 21 21 22 22 22 21 20 20 20 19 18 17 17 19 20 20 20 21 21 21 22 24 25 28 31 33 35 37 37 37 37 38 38 37 37 36 36 35 34 33 31 30
22 22 22 22 22 22 22 21 21 21 20 19 19 18 18 19 20 20 20 20 21 22 23 24 26 27 30 34 35 36 36 37 38 38 38 37 36 35 34 33 32 31 30 29
23 23 23 23 23 23 23 22 22 21 21 20 20 19 19 20 20 20 20 21 21 22 23 25 26 27 30 33 36 36 36 37 37 37 37 36 35 35 34 33 32 31 30 29
24 24 24 24 24 23 23 23 22 22 22 21 20 20 20 21 21 22 22 22 23 25 25 26 27 29 31 33 35 36 36 35 36 36 36 35 34 33 32 31 30 30 29 28
24 24 24 24 23 23 23 23 22 22 22 21 21 21 21 22 22 23 24 24 25 26 27 27 29 30 31 32 34 35 36 36 35 35 35 34 33 32 31 30 28 27 27 26
24 23 23 23 22 22 22 21 21 20 21 21 21 21 22 23 24 24 25 26 26 27 28 28 29 31 32 32 33 34 35 36 35 34 34 33 32 32 30 29 28 27 26 25
23 23 22 22 21 21 21 20 19 19 20 21 21 22 23 24 25 26 27 27 28 28 29 29 29 31 32 32 33 34 35 35 35 34 34 33 32 31 30 28 27 26 25 24
Wind_Direction
316 315 311 305 300 295 289 285 283 279 275 273 268 261 254 251 249 244 237 231 225 221 220 219 219 218 216 216 215 214 215 216 217 218 218 217 219 222 224 226 226 227 229 232
314 314 311 306 300 294 289 287 285 280 274 270 266 260 253 249 248 245 238 232 228 222 220 220 220 219 219 217 215 215 215 216 217 217 218 218 219 222 224 226 227 229 230 233
313 311 309 307 303 291 288 287 286 282 277 269 264 259 251 247 245 243 237 232 230 225 220 220 220 219 219 218 216 215 215 216 216 217 217 219 220 222 225 227 228 231 232 235
312 310 308 310 301 291 286 285 284 282 278 270 264 260 254 247 244 242 238 232 229 225 220 219 220 220 219 218 216 216 216 216 215 216 217 218 220 221 223 226 229 231 233 235
311 310 310 308 299 291 287 283 280 280 277 272 269 264 256 250 244 241 238 234 230 227 222 218 218 219 219 219 219 218 217 217 217 217 217 218 219 221 223 225 228 230 232 233
308 308 309 309 302 295 289 283 280 279 274 271 269 264 255 250 247 245 239 235 232 229 224 220 218 217 217 217 218 218 218 218 218 218 218 218 219 221 223 224 227 228 230 231
306 305 306 306 302 296 289 285 281 278 274 271 267 264 257 252 249 247 242 235 233 231 226 221 219 218 217 217 216 217 218 218 217 218 218 219 220 221 223 225 227 229 230 232
303 302 304 301 298 294 288 283 281 277 274 272 267 263 260 254 250 247 243 239 235 232 227 223 221 217 215 216 216 217 218 218 217 217 217 218 220 221 223 225 227 228 230 233
301 301 299 297 295 293 288 283 279 277 273 272 267 261 257 254 251 247 244 241 237 233 227 223 220 218 215 214 215 217 217 217 217 217 218 218 219 221 223 225 227 228 231 234
299 300 296 294 293 292 288 284 280 277 274 271 267 262 258 254 250 247 244 242 238 233 227 222 219 218 216 215 215 216 217 216 215 215 216 217 219 220 222 224 226 228 231 234
298 298 294 293 291 290 287 283 281 277 274 273 268 263 259 255 250 246 241 239 236 231 225 221 218 216 217 215 214 215 215 214 213 213 215 216 218 220 222 224 228 229 230 232
298 297 295 292 286 285 285 284 281 278 275 273 270 265 260 254 249 245 241 238 233 229 225 221 217 215 215 213 212 213 214 213 211 212 215 216 217 219 221 223 225 226 229 231
296 295 294 290 285 285 285 284 281 278 276 272 269 266 260 253 246 242 239 236 231 227 223 220 217 214 213 212 211 212 213 213 211 212 214 216 216 217 220 222 224 225 227 229
295 292 290 287 284 284 284 282 279 276 277 273 268 264 257 249 244 240 236 232 229 224 221 219 215 213 210 208 209 210 212 212 211 211 213 214 214 215 217 219 221 223 224 227
292 288 286 283 281 280 281 280 277 274 274 274 268 261 255 248 242 236 233 230 226 222 218 216 213 211 209 208 208 209 209 209 209 211 212 212 213 214 216 217 218 221 224 225
288 284 282 280 278 277 277 277 276 274 272 272 266 258 253 245 238 234 230 227 223 219 215 213 211 209 209 207 207 207 208 208 208 210 210 211 212 213 215 217 219 221 222 224
285 281 278 276 274 273 274 275 275 273 270 266 261 254 249 242 236 232 229 227 222 218 215 213 210 208 207 206 207 208 208 208 207 208 209 210 212 214 216 216 217 218 219 222
282 277 274 272 270 270 271 272 273 272 268 261 256 251 246 240 234 230 228 226 221 216 213 212 211 209 208 207 207 208 209 209 208 209 210 210 210 212 213 215 215 216 220 223
280 275 272 270 268 267 268 270 271 269 262 257 253 249 244 238 231 229 226 224 221 215 211 211 210 209 208 207 207 207 208 208 209 208 207 207 207 208 210 213 214 215 218 220
277 274 272 271 269 269 268 268 268 264 259 255 250 247 241 234 229 226 224 220 217 212 209 208 208 207 206 205 203 203 203 204 204 203 202 202 203 205 208 209 211 214 215 216
277 274 272 271 271 270 267 265 264 260 255 253 249 244 237 231 227 224 221 217 213 208 203 200 200 200 199 198 197 196 197 198 198 199 198 197 199 201 203 205 206 209 211 213
276 274 271 270 270 267 264 260 259 256 252 249 246 241 234 228 223 219 215 208 202 198 195 193 193 194 194 193 192 192 193 195 194 194 195 196 197 198 201 202 203 204 206 210
276 275 272 269 267 264 261 257 255 252 249 245 241 236 230 224 217 212 207 201 198 193 191 190 190 190 189 188 188 188 189 189 189 191 192 194 196 197 197 199 201 203 205 206
276 276 273 270 266 262 258 255 252 249 246 243 237 231 224 216 208 205 201 198 196 192 190 190 188 184 182 184 185 185 184 184 186 187 188 190 191 193 195 197 199 201 203 205
276 275 272 269 265 260 256 252 250 247 243 237 229 222 215 209 204 201 198 195 191 187 188 188 187 185 185 184 183 182 182 184 185 186 186 187 189 191 193 194 196 198 200 202
277 275 270 265 262 259 253 249 246 242 235 226 219 214 210 205 200 197 194 190 187 185 185 186 185 185 183 182 181 181 181 183 185 186 186 186 188 190 192 195 197 198 198 200
277 274 268 263 259 254 247 241 237 232 224 216 212 208 205 200 196 194 191 189 187 185 184 184 184 183 181 179 179 180 181 182 183 184 185 186 187 188 190 191 193 195 196 197
Height
5519 5514 5509 5506 5503 5500 5496 5493 5491 5490 5488 5488 5487 5487 5488 5488 5489 5491 5492 5495 5499 5504 5510 5516 5523 5530 5538 5545 5553 5561 5570 5579 5589 5598 5608 5616 5625 5633 5640 5648 5655 5661 5667 5672
5513 5507 5502 5498 5496 5493 5490 5487 5484 5483 5483 5482 5481 5481 5482 5482 5483 5485 5486 5489 5492 5497 5502 5509 5515 5522 5530 5537 5545 5553 5563 5572 5581 5590 5599 5607 5616 5624 5632 5639 5646 5653 5659 5665
5505 5500 5495 5492 5490 5486 5483 5481 5479 5477 5477 5475 5475 5475 5475 5476 5477 5479 5480 5483 5486 5490 5495 5501 5508 5515 5522 5530 5538 5546 5555 5564 5573 5581 5590 5599 5608 5616 5624 5631 5638 5645 5652 5657
5496 5493 5488 5489 5483 5479 5477 5475 5473 5470 5470 5469 5468 5468 5469 5470 5471 5473 5474 5476 5479 5483 5488 5494 5500 5507 5515 5522 5530 5538 5547 5556 5565 5573 5582 5590 5599 5608 5615 5623 5630 5637 5644 5650
5488 5483 5480 5480 5476 5472 5469 5469 5466 5464 5464 5463 5462 5462 5463 5463 5464 5466 5467 5470 5473 5476 5481 5486 5493 5500 5507 5514 5522 5531 5539 5548 5557 5565 5573 5582 5591 5599 5607 5614 5622 5629 5635 5641
5481 5476 5473 5473 5468 5464 5463 5462 5460 5458 5457 5456 5455 5455 5457 5456 5457 5458 5460 5462 5465 5469 5474 5479 5485 5492 5499 5506 5514 5523 5532 5540 5548 5557 5565 5574 5583 5591 5598 5606 5613 5620 5627 5633
5473 5467 5465 5464 5460 5457 5456 5456 5452 5450 5449 5449 5448 5448 5449 5449 5450 5451 5453 5455 5459 5462 5467 5472 5478 5484 5491 5499 5507 5515 5524 5532 5541 5549 5557 5566 5574 5582 5590 5598 5605 5612 5619 5625
5465 5460 5461 5455 5452 5449 5448 5446 5444 5442 5442 5441 5441 5441 5441 5442 5443 5444 5446 5448 5451 5455 5460 5465 5470 5476 5484 5491 5500 5508 5516 5525 5533 5542 5550 5558 5566 5574 5582 5589 5597 5603 5610 5616
5458 5457 5452 5447 5443 5441 5439 5437 5436 5434 5434 5433 5433 5433 5434 5435 5436 5437 5439 5441 5444 5448 5452 5457 5463 5469 5477 5484 5492 5500 5508 5516 5525 5534 5542 5550 5558 5566 5574 5581 5588 5595 5602 5608
5448 5447 5443 5439 5435 5433 5431 5429 5427 5426 5426 5426 5425 5426 5426 5427 5428 5429 5431 5433 5436 5440 5445 5450 5455 5462 5469 5476 5484 5492 5500 5509 5517 5526 5534 5543 5551 5558 5566 5574 5581 5588 5594 5600
5439 5438 5434 5431 5428 5425 5423 5421 5420 5419 5418 5418 5418 5418 5418 5419 5420 5421 5423 5426 5428 5432 5436 5442 5447 5454 5461 5468 5476 5485 5493 5501 5509 5518 5526 5535 5543 5551 5559 5567 5574 5581 5587 5593
5432 5429 5425 5424 5420 5418 5416 5415 5413 5412 5411 5411 5410 5410 5411 5411 5412 5414 5416 5418 5421 5425 5429 5434 5440 5446 5453 5460 5469 5477 5486 5494 5502 5510 5519 5527 5535 5544 5551 5559 5566 5573 5579 5585
5423 5419 5416 5415 5413 5411 5409 5408 5406 5406 5405 5404 5404 5403 5404 5404 5406 5407 5409 5411 5414 5418 5422 5427 5432 5439 5445 5453 5461 5470 5478 5487 5495 5503 5511 5520 5528 5536 5544 5551 5557 5564 5571 5577
5413 5410 5408 5407 5405 5403 5402 5401 5400 5399 5398 5397 5397 5397 5397 5398 5399 5401 5403 5405 5408 5412 5416 5420 5425 5432 5439 5446 5454 5463 5471 5479 5487 5496 5504 5513 5520 5529 5537 5544 5551 5557 5563 5569
5404 5402 5400 5399 5397 5396 5395 5394 5394 5393 5392 5391 5391 5391 5391 5392 5394 5395 5398 5400 5403 5406 5410 5414 5419 5426 5433 5440 5448 5456 5464 5472 5480 5488 5497 5505 5513 5521 5529 5537 5544 5550 5556 5561
5395 5393 5392 5391 5390 5389 5388 5388 5387 5387 5386 5385 5385 5385 5386 5386 5388 5391 5393 5395 5398 5401 5405 5409 5414 5421 5427 5435 5442 5450 5458 5466 5474 5481 5489 5498 5506 5514 5522 5529 5536 5542 5549 5554
5386 5385 5384 5383 5383 5382 5381 5381 5380 5380 5379 5379 5379 5379 5380 5381 5384 5386 5388 5390 5394 5397 5401 5405 5410 5416 5422 5429 5437 5444 5451 5459 5467 5474 5482 5490 5499 5507 5514 5522 5529 5536 5542 5548
5378 5377 5376 5376 5375 5375 5375 5374 5373 5373 5373 5373 5373 5373 5375 5376 5378 5381 5383 5386 5389 5392 5396 5400 5405 5410 5417 5423 5431 5438 5445 5453 5460 5468 5476 5484 5491 5499 5507 5515 5522 5529 5535 5541
5370 5369 5369 5368 5368 5368 5367 5367 5367 5366 5366 5367 5367 5368 5369 5371 5373 5375 5378 5381 5384 5387 5391 5395 5400 5405 5411 5417 5424 5432 5439 5447 5454 5461 5469 5477 5485 5493 5501 5509 5516 5523 5529 5534
5362 5361 5361 5360 5360 5360 5360 5360 5359 5360 5360 5361 5361 5362 5364 5365 5368 5370 5373 5376 5379 5382 5386 5390 5395 5400 5405 5411 5418 5426 5433 5441 5448 5456 5464 5472 5480 5488 5496 5503 5510 5516 5523 5528
5354 5353 5353 5353 5353 5352 5352 5352 5352 5353 5353 5354 5355 5357 5358 5360 5362 5365 5368 5371 5375 5378 5381 5386 5390 5395 5401 5407 5414 5421 5429 5436 5444 5452 5460 5467 5475 5483 5490 5498 5504 5511 5517 5523
5346 5345 5345 5345 5345 5344 5344 5344 5345 5346 5347 5348 5349 5351 5353 5355 5357 5360 5363 5367 5371 5374 5378 5382 5387 5392 5397 5404 5411 5418 5425 5433 5440 5448 5456 5464 5471 5479 5486 5493 5500 5506 5512 5518
5337 5337 5336 5336 5336 5336 5336 5337 5337 5338 5340 5341 5343 5345 5347 5349 5352 5356 5359 5363 5367 5371 5376 5380 5385 5390 5396 5402 5409 5416 5424 5431 5438 5446 5453 5461 5468 5476 5483 5490 5496 5502 5508 5514
5329 5328 5328 5327 5327 5327 5328 5328 5329 5331 5332 5334 5336 5338 5341 5344 5348 5351 5355 5359 5364 5369 5374 5379 5384 5389 5395 5401 5408 5415 5422 5429 5437 5444 5452 5459 5466 5473 5480 5486 5493 5498 5504 5510
5320 5319 5319 5318 5318 5318 5319 5320 5321 5323 5324 5327 5329 5332 5336 5339 5343 5347 5352 5356 5361 5366 5372 5377 5382 5388 5393 5400 5406 5414 5421 5428 5435 5442 5449 5456 5463 5470 5477 5483 5489 5495 5501 5506
5311 5310 5309 5309 5309 5309 5310 5311 5313 5315 5317 5320 5323 5327 5331 5335 5339 5344 5349 5354 5359 5364 5370 5376 5381 5387 5393 5399 5405 5412 5420 5427 5434 5440 5447 5454 5461 5468 5474 5481 5487 5492 5498 5503
5302 5301 5300 5300 5300 5301 5302 5303 5306 5308 5310 5314 5318 5322 5326 5331 5335 5340 5346 5351 5357 5362 5368 5374 5380 5386 5392 5398 5405 5411 5418 5425 5432 5439 5446 5453 5459 5466 5472 5478 5484 5490 5495 5500